Location: Colebrook
(42.0017°N, 73.0973°W)
Time: 13:26:16
(UTC-04:00)

Envisat - Pass Details

Date: 28 September 2021
Orbit: 764 x 766 km, 98.2° (Epoch: 22 October)

Event Time Altitude Azimuth Distance (km) Brightness Sun altitude
Rises 04:47:43 0° 31° (NNE) 3,238 7.0 -22.5°
Reaches altitude 10° 04:50:55 10° 52° (NE) 2,306 6.5 -22.0°
Maximum altitude 04:54:04 16° 91° (E) 1,890 5.9 -21.4°
Drops below altitude 10° 04:57:13 10° 130° (SE) 2,295 5.9 -20.9°
Sets 05:00:22 0° 150° (SSE) 3,215 6.4 -20.3°
